Regional Weather Roundup
Issued by NWS

Home | Current Version | Previous Version | Text Only | Print | Product List | Glossary Off
Versions: 1 2 3 4 5 6 7 8 9 10 11 12 13 14 15 16 17 18 19 20 21 22 23 24 25 26 27 28 29 30 31 32 33 34 35 36 37 38 39 40 41 42 43 44 45 46 47 48 49 50

000
ASUS43 KLOT 201206
RWRIL

ILLINOIS REGIONAL WEATHER ROUNDUP
NATIONAL WEATHER SERVICE CHICAGO/ROMEOVILLE IL
700 AM CDT MON OCT 20 2014

NOTE: "FAIR" INDICATES FEW OR NO CLOUDS BELOW 12,000 FEET WITH NO
SIGNIFICANT WEATHER AND/OR OBSTRUCTIONS TO VISIBILITY.

* THESE STATIONS ARE NOT UNDER NWS QUALITY CONTROL. THEY ALSO MAY NOT
  REPORT WEATHER SUCH AS PRECIPITATION OR FOG.

ILZ001-002-007-009-015-016-024-201300-
NORTHWEST ILLINOIS

CITY           SKY/WX    TMP DP  RH WIND       PRES   REMARKS
MOLINE         CLEAR     50  43  77 NW15      29.89R
6HR MIN TEMP:  47; 6HR MAX TEMP:  53;

STERLING*      CLEAR     45  30  57 W8        29.85R
SAVANNA*       CLEAR     48  43  83 NW6       29.87R
$$

ILZ003-004-008-010-011-017-018-201300-
NORTH CENTRAL ILLINOIS

CITY           SKY/WX    TMP DP  RH WIND       PRES   REMARKS
ROCKFORD       PTCLDY    45  41  86 W7        29.84R
6HR MIN TEMP:  44; 6HR MAX TEMP:  49;

FREEPORT*      CLEAR     45  42  90 W7        29.85R
ROCHELLE*      CLEAR     39  39  98 CALM      29.84R
DE KALB*       CLEAR     45  42  89 W9        29.82S
PERU*          CLEAR     48  45  88 W12       29.85R
$$

ILZ005-006-012>014-019>023-201300-
NORTHEAST ILLINOIS

CITY           SKY/WX    TMP DP  RH WIND       PRES   REMARKS
CHICAGO-OHARE  PTCLDY    47  43  86 W8        29.80S
6HR MIN TEMP:  47; 6HR MAX TEMP:  52; 6HR PCP:  0.01;

CHICAGO-MIDWAY PTCLDY    50  45  83 SW9       29.81S
6HR MIN TEMP:  50; 6HR MAX TEMP:  52;

AURORA         CLEAR     45  41  86 W7        29.82R
6HR MIN TEMP:  44; 6HR MAX TEMP:  50;

LANSING*       MOCLDY    49  45  85 SW9       29.82F THUNDER
JOLIET*        CLEAR     46  44  91 CALM      29.83R
WAUKEGAN       CLEAR     47  42  83 W6        29.79R
6HR MIN TEMP:  47; 6HR MAX TEMP:  51;

DUPAGE AIRPORT CLEAR     45  42  89 SW7       29.81R
6HR MIN TEMP:  44; 6HR MAX TEMP:  51;

KANKAKEE*      CLOUDY    50  46  86 SW8       29.84F
WHEELING       PTCLDY    49  43  80 W5        29.80S
6HR MIN TEMP:  49; 6HR MAX TEMP:  54; 6HR PCP:  0.01;

MORRIS*        PTCLDY    46  45  95 W7        29.82R
ROMEOVILLE*    CLEAR     47  45  95 SW6       29.82R
NORTHERLY ISL    N/A     51  45  79 W10         N/A
$$

LMZ740>746-201300-
SOUTHERN LAKE MICHIGAN

STATION/POSITION SKY/WX   TEMP    WIND        PRES    VSBY  WAVE
                          AIR SEA DIR/SP/G                  HT/PER
                          (F)     (DEG/KT/KT) (MB)    (MI)  (FT/S)
SOUTHERN BUOY              54 55  250/ 12/ 14 1008.7R         4/ 6
WAUKEGAN HARBOR            50     270/ 12/ 16   N/A
HARRISON CRIB              52     230/  9/ 12   N/A
BURNHAM HARBOR             51     250/  6/ 14   N/A
CALUMET HARBOR             49     220/  5/ 11 1008.1R
MICHIGAN CITY              49     170/ 11/ 15   N/A
$$

ILZ025>027-034>036-040-047-049-050-058-095>099-201300-
WEST-CENTRAL ILLINOIS

CITY           SKY/WX    TMP DP  RH WIND       PRES   REMARKS
QUINCY         CLEAR     52  48  86 W8        29.94R
GALESBURG*     CLEAR     46  44  91 W7        29.90R
MACOMB*        CLEAR     49  47  92 W7        29.93R
JACKSONVILLE*  CLEAR     52  49  89 SW7       29.92R
PITTSFIELD*    CLEAR     55  50  83 W5        29.95R
$$

ILZ028>032-037-038-041>044-048-051>054-059>061-201300-
CENTRAL ILLINOIS

CITY           SKY/WX    TMP DP  RH WIND       PRES   REMARKS
PONTIAC        PTCLDY    50  46  87 SW8       29.85S
BLOOMINGTON    CLEAR     48  46  93 SW10      29.89S
DECATUR        CLEAR     52  48  86 SW13      29.91S
PEORIA         CLEAR     49  45  86 SW6       29.88S
6HR MIN TEMP:  48; 6HR MAX TEMP:  51;

LACON*         CLEAR     50  45  83 W8        29.86R
LINCOLN*       CLEAR     52  48  85 SW3       29.88F
SPRINGFIELD    CLEAR     52  48  86 SW7       29.91S
6HR MIN TEMP:  52; 6HR MAX TEMP:  54;

TAYLORVILLE    PTCLDY    52  46  82 SW9       29.92S
$$

ILZ033-039-045-046-055>057-062-063-201300-
EAST-CENTRAL ILLINOIS

CITY           SKY/WX    TMP DP  RH WIND       PRES   REMARKS
CHAMPAIGN      PTCLDY    50  47  89 SW9       29.90S
DANVILLE*      MOCLDY    51  46  86 SW10      29.86F
RANTOUL*       PTCLDY    51  46  81 SW8       29.89S
MATTOON        CLOUDY    50  46  86 S9        29.92S
PARIS*         MOCLDY    50  47  89 S7        29.92F
$$

ILZ079-100>102-201300-
SOUTHWEST ILLINOIS

CITY           SKY/WX    TMP DP  RH WIND       PRES   REMARKS
ALTON          PTCLDY    52  48  87 SW7       29.96S
BELLEVILLE     MOCLDY    52  49  89 CALM      29.96S FOG
CAHOKIA*       PTCLDY    55  48  77 SW6       29.96F
SPARTA*        MOCLDY    53  47  80 SW5       29.99F
$$

ILZ064>066-069>071-074>076-080>082-084>086-088>090-092>094-201300-
SOUTH-CENTRAL ILLINOIS

CITY           SKY/WX    TMP DP  RH WIND       PRES   REMARKS
CARBONDALE     LGT RAIN  50  46  86 S6        30.01S
6HR MIN TEMP:  43; 6HR MAX TEMP:  51; 6HR PCP: TRACE;

CAIRO*         MOCLDY    53  49  87 CALM      30.04S
EFFINGHAM*     PTCLDY    50  45  83 S3        29.95S
MARION         MOCLDY    52  48  87 MISG      30.02S
MT. VERNON     CLOUDY    52  45  76 SW8       29.98F
CENTRALIA*     CLOUDY    52  46  81 SW6       29.97S
SALEM*         MOCLDY    54  50  86 SW7       29.97S
METROPOLIS*    PTCLDY    47  47 100 CALM      30.03S FOG
$$

ILZ067-068-072-073-078-083-087-091-201300-
SOUTHEAST ILLINOIS

CITY           SKY/WX    TMP DP  RH WIND       PRES   REMARKS
LAWRENCEVILLE  PTCLDY    49  47  93 S6        29.98F
FLORA*         PTCLDY    51  47  87 S8        29.97S
FAIRFIELD*     MOCLDY    50  48  92 S5        29.97F
HARRISBURG*    PTCLDY    50  49  94 CALM      30.02S
ROBINSON*      MOCLDY    50  48  92 S6        29.97S
CARMI*         MOCLDY    51  49  94 S5        30.00S
$$

ABBREVIATIONS USED IN REMARKS
   TC - TEMPERATURE IN CELSIUS
  WCI - WIND CHILL INDEX
   HX - HEAT INDEX
  VSB - VISIBILITY
$$



USA.gov is the U.S. government's official web portal to all federal, state and local government web resources and services.